TimeHST,TemperatureF,Dew PointF,Humidity,Sea Level PressureIn,VisibilityMPH,Wind Direction,Wind SpeedMPH,Gust SpeedMPH,PrecipitationIn,Events,Conditions,WindDirDegrees,DateUTC
12:57 AM,75.9,66.9,74,30.02,10.0,ENE,5.8,-,N/A,,Partly Cloudy,70,2013-05-18 10:57:00
1:57 AM,75.9,66.9,74,30.00,10.0,Variable,4.6,-,N/A,,Partly Cloudy,0,2013-05-18 11:57:00
2:57 AM,73.6,66.9,80,29.99,10.0,East,6.9,-,0.00,,Scattered Clouds,90,2013-05-18 12:57:00
3:57 AM,75.0,68.0,79,29.98,10.0,East,5.8,-,N/A,,Scattered Clouds,90,2013-05-18 13:57:00
4:57 AM,75.0,68.0,79,29.98,10.0,East,4.6,-,N/A,,Partly Cloudy,100,2013-05-18 14:57:00
5:57 AM,75.0,69.1,82,30.00,10.0,ESE,3.5,-,N/A,,Partly Cloudy,110,2013-05-18 15:57:00
6:57 AM,75.9,68.0,76,30.02,10.0,Variable,4.6,-,N/A,,Mostly Cloudy,0,2013-05-18 16:57:00
7:57 AM,77.2,69.1,76,30.04,10.0,ESE,8.1,-,N/A,,Scattered Clouds,110,2013-05-18 17:57:00
8:13 AM,77.0,69.8,78,30.05,6.2,Variable,5.8,-,N/A,,Mostly Cloudy,0,2013-05-18 18:13:00
8:24 AM,77.0,69.8,78,30.05,6.2,ENE,5.8,-,N/A,,Scattered Clouds,60,2013-05-18 18:24:00
8:57 AM,77.0,69.1,76,30.05,10.0,Variable,5.8,-,N/A,,Scattered Clouds,0,2013-05-18 18:57:00
9:04 AM,84.2,69.8,62,30.06,6.2,ENE,5.8,-,N/A,,Mostly Cloudy,60,2013-05-18 19:04:00
9:16 AM,84.2,69.8,62,30.06,6.2,NE,5.8,-,N/A,,Scattered Clouds,50,2013-05-18 19:16:00
9:26 AM,84.2,69.8,62,30.06,6.2,NE,6.9,-,N/A,,Mostly Cloudy,40,2013-05-18 19:26:00
9:57 AM,84.2,69.1,60,30.05,10.0,NE,6.9,-,N/A,,Mostly Cloudy,50,2013-05-18 19:57:00
10:04 AM,84.2,69.8,62,30.07,6.2,NE,6.9,-,N/A,,Scattered Clouds,50,2013-05-18 20:04:00
10:57 AM,84.2,70.0,62,30.05,10.0,NE,8.1,-,N/A,,Scattered Clouds,40,2013-05-18 20:57:00
11:57 AM,84.2,70.0,62,30.04,10.0,NE,8.1,-,N/A,,Scattered Clouds,50,2013-05-18 21:57:00
12:57 PM,82.4,69.1,64,30.02,10.0,NE,10.4,-,N/A,,Clear,50,2013-05-18 22:57:00
1:57 PM,82.4,69.1,64,30.00,10.0,NE,6.9,-,N/A,,Scattered Clouds,40,2013-05-18 23:57:00
2:57 PM,82.4,71.1,68,29.99,10.0,ENE,6.9,-,N/A,,Scattered Clouds,60,2013-05-19 00:57:00
3:57 PM,83.3,70.0,64,29.97,10.0,NE,8.1,-,N/A,,Clear,50,2013-05-19 01:57:00
4:57 PM,84.2,69.1,60,29.97,10.0,Variable,3.5,-,N/A,,Partly Cloudy,0,2013-05-19 02:57:00
5:57 PM,84.2,69.1,60,29.97,10.0,NE,5.8,-,N/A,,Clear,50,2013-05-19 03:57:00
6:57 PM,78.8,68.0,69,29.99,10.0,ENE,4.6,-,N/A,,Clear,60,2013-05-19 04:57:00
7:19 PM,-9999,-9999,N/A,-9999,-9999.0,North,-9999.0,-,N/A,,Unknown,0,2013-05-19 05:19:00
7:57 PM,78.8,66.9,67,30.01,10.0,ENE,3.5,-,N/A,,Partly Cloudy,60,2013-05-19 05:57:00
8:57 PM,77.0,68.0,74,30.02,10.0,NE,3.5,-,N/A,,Clear,50,2013-05-19 06:57:00
9:57 PM,75.2,68.0,78,30.04,10.0,NNE,5.8,-,N/A,,Partly Cloudy,20,2013-05-19 07:57:00
10:00 PM,-9999,-9999,N/A,-9999,-9999.0,North,-9999.0,-,N/A,,Unknown,0,2013-05-19 08:00:00
10:57 PM,73.4,68.0,83,30.03,10.0,NE,9.2,-,0.00,Rain,Light Rain,50,2013-05-19 08:57:00
11:57 PM,73.4,66.9,80,30.02,10.0,Calm,Calm,-,0.00,,Partly Cloudy,0,2013-05-19 09:57:00